Location: Unspecified
(33.8426°N, 132.7625°E)
Time: 07:41:22
(UTC+09:00)

N. Korean satellite - Visible Passes

Search period start: 08 December 2021 00:00
Search period end: 18 December 2021 00:00
Orbit: 446 x 495 km, 97.3° (Epoch: 07 December)

Date Brightness Start Highest point End Pass type
(mag) Time Alt. Az. Time Alt. Az. Time Alt. Az.
08 Dec 6.8 05:42:41 10° N 05:45:52 39° WNW 05:49:03 10° SW visible
08 Dec 10.3 17:48:29 10° WSW 17:49:13 10° W 17:49:58 10° W visible
09 Dec 6.6 05:14:01 10° NNE 05:17:23 70° E 05:20:46 10° S visible
10 Dec 8.7 04:45:58 10° NE 04:48:47 25° E 04:51:38 10° SSE visible
10 Dec 8.2 06:20:09 10° NW 06:21:43 13° WNW 06:23:16 10° W visible
11 Dec 7.1 05:51:03 15° NNW 05:53:21 30° WNW 05:56:23 10° SW visible
12 Dec 6.3 05:22:46 22° N 05:24:53 88° W 05:28:17 10° SSW visible
12 Dec 9.5 17:25:26 10° SW 17:28:04 20° W 17:30:42 10° NW visible
13 Dec 8.2 04:54:22 18° NE 04:56:18 32° E 04:59:23 10° SSE visible
13 Dec 8.5 06:28:48 10° WNW 06:29:07 10° WNW 06:29:26 10° WNW visible
14 Dec 9.7 04:25:59 10° ENE 04:27:37 13° E 04:29:14 10° ESE visible
14 Dec 7.5 05:59:58 22° NW 06:00:46 24° WNW 06:03:35 10° SW visible
15 Dec 6.3 05:31:24 44° NNW 05:32:18 66° WNW 05:35:42 10° SSW visible
15 Dec 9.7 17:33:22 10° SW 17:35:33 16° W 17:37:42 10° NW visible
16 Dec 7.6 05:02:49 33° ENE 05:03:43 42° E 05:07:00 10° S visible
17 Dec 9.4 04:34:11 15° ENE 04:35:03 16° E 04:37:18 10° SE visible
17 Dec 7.8 06:08:16 19° WNW 06:08:16 19° WNW 06:10:39 10° WSW visible
